CDT,Max TemperatureF,Mean TemperatureF,Min TemperatureF,Max Dew PointF,MeanDew PointF,Min DewpointF,Max Humidity, Mean Humidity, Min Humidity, Max Sea Level PressureIn, Mean Sea Level PressureIn, Min Sea Level PressureIn, Max VisibilityMiles, Mean VisibilityMiles, Min VisibilityMiles, Max Wind SpeedMPH, Mean Wind SpeedMPH, Max Gust SpeedMPH,PrecipitationIn, CloudCover, Events, WindDirDegrees
2012-10-1,78,68,55,63,57,54,100,72,42,29.80,29.71,29.65,10,8,3,16,7,25,0.01,4,,321
2012-10-2,78,66,53,70,56,52,100,75,39,29.96,29.88,29.80,10,9,4,7,0,,0.00,1,,12
2012-10-3,82,68,55,73,59,55,100,71,39,30.10,30.02,29.96,10,7,0,8,1,,0.00,1,Fog,188
2012-10-4,86,72,57,73,64,57,100,69,43,30.21,30.15,30.10,10,7,0,8,1,,0.00,2,Fog,135
2012-10-5,86,80,73,75,65,59,100,59,40,30.15,30.08,30.00,10,7,4,9,1,,0.00,2,,176
2012-10-6,75,65,55,68,61,55,100,87,65,30.12,30.04,30.00,10,8,0,12,3,18,0.00,4,Fog,19
2012-10-7,66,58,51,54,50,45,100,80,56,30.21,30.14,30.09,10,10,10,14,8,20,0.00,0,,10
2012-10-8,68,58,48,54,49,46,100,77,49,30.23,30.16,30.11,10,10,10,10,5,16,0.00,4,,8
2012-10-9,78,60,42,64,52,43,100,81,50,30.15,30.08,29.99,10,9,4,6,1,,0.00,0,,137
2012-10-10,86,72,59,75,68,59,100,74,48,30.17,30.11,30.05,10,8,3,5,0,,0.00,3,,81
2012-10-11,86,72,59,73,63,59,100,74,43,30.23,30.17,30.14,10,6,0,8,1,,0.00,3,Fog,128
2012-10-12,84,70,57,73,64,57,100,76,48,30.25,30.19,30.16,10,6,0,6,1,,0.00,2,Fog,109
2012-10-13,86,74,62,75,68,63,100,78,48,30.19,30.12,30.03,10,7,0,10,3,17,0.00,4,Fog,158
2012-10-14,86,78,69,77,71,66,100,79,55,30.11,30.03,29.97,10,8,1,9,4,16,0.11,2,Rain-Thunderstorm,198
2012-10-15,80,72,64,70,57,48,100,57,34,30.08,30.01,29.95,10,9,1,9,2,,0.00,1,,21
2012-10-16,75,62,48,68,59,48,100,83,53,30.01,29.92,29.83,10,10,7,7,1,,0.00,1,Rain,116
2012-10-17,84,70,55,79,66,55,100,81,55,29.84,29.76,29.67,10,8,0,14,3,21,0.03,6,Fog-Rain,185
2012-10-18,78,70,62,72,48,37,100,46,24,29.96,29.85,29.70,10,9,2,10,6,17,0.84,2,Rain-Thunderstorm,15
2012-10-19,78,60,42,59,41,30,100,42,17,29.99,29.94,29.89,10,10,10,12,2,18,0.00,0,,278
2012-10-20,82,66,51,64,47,37,100,46,20,30.01,29.95,29.91,10,10,10,8,1,,0.00,0,,159
2012-10-21,84,74,62,70,63,57,100,63,40,30.07,30.01,29.95,10,10,5,10,1,16,0.00,1,,161
2012-10-22,84,67,50,70,60,50,100,71,42,30.11,30.05,30.01,10,8,0,9,2,,0.00,2,Fog,126
2012-10-23,84,68,53,72,63,54,100,79,48,30.06,30.02,29.97,10,7,0,7,1,,0.00,4,Fog,119
2012-10-24,84,72,59,73,66,59,100,75,51,30.07,30.01,29.95,10,7,0,7,1,,0.00,5,Fog,116
2012-10-25,86,73,60,73,65,61,100,69,45,29.99,29.94,29.90,10,7,0,8,2,,0.00,4,Fog,142
2012-10-26,71,60,50,72,61,50,100,99,88,30.15,30.03,29.94,10,6,0,16,4,25,0.00,8,Fog-Rain-Thunderstorm,346
2012-10-27,62,52,41,50,41,36,100,72,37,30.17,30.11,30.03,10,10,10,15,10,23,0.00,2,,347
2012-10-28,64,48,33,45,36,30,100,68,28,30.22,30.16,30.12,10,10,10,15,3,23,0.00,0,,344
2012-10-29,64,48,33,48,36,30,100,53,28,30.28,30.21,30.14,10,9,7,14,2,18,0.00,0,,353
2012-10-30,71,56,42,55,41,36,100,53,27,30.16,30.09,30.00,10,10,7,7,1,,0.00,0,,267
2012-10-31,80,71,62,66,58,54,100,61,39,30.06,30.01,29.94,10,8,2,13,2,18,0.00,2,,235